When you browse on this site, cookies collect data to enhance your experience and personalize the content and advertising you see.
Visit our Privacy Policy to learn more. By continuing to use the site, you agree to this use of cookies and data.
  • In Sweden
  • List of Countries
  • For 7 days
  • Water Temperature
  • Weather Map
  • Weather Widgets
  • user-avatar
    Login

    Hourly Weather Clovis

    Today, 3 June, Wednesday

    Time Temperature Precipitation Wind Pressure Humidity
    00:00 +26°C° 0 mm 1 mps 752 mmHg 40%
    01:00 +26°C° 0 mm 1 mps 752 mmHg 41%
    02:00 +25°C° 0 mm 1 mps 752 mmHg 41%
    03:00 +25°C° 0 mm 1 mps 752 mmHg 41%
    04:00 +24°C° 0 mm 1 mps 752 mmHg 42%
    05:00 +26°C° 0 mm 1 mps 752 mmHg 40%
    06:00 +27°C° 0 mm 1 mps 752 mmHg 38%
    07:00 +28°C° 0 mm 1 mps 752 mmHg 36%
    08:00 +31°C° 0 mm 1 mps 752 mmHg 33%
    09:00 +33°C° 0 mm 1 mps 752 mmHg 29%
    10:00 +36°C° 0 mm 2 mps 752 mmHg 25%
    11:00 +38°C° 0 mm 2 mps 751 mmHg 22%
    12:00 +39°C° 0 mm 2 mps 751 mmHg 19%
    13:00 +41°C° 0 mm 2 mps 750 mmHg 16%
    14:00 +41°C° 0 mm 2 mps 750 mmHg 16%
    15:00 +41°C° 0 mm 2 mps 750 mmHg 16%
    16:00 +41°C° 0 mm 2 mps 750 mmHg 16%
    17:00 +38°C° 0 mm 3 mps 749 mmHg 20%
    18:00 +35°C° 0 mm 3 mps 749 mmHg 25%
    19:00 +33°C° 0 mm 3 mps 749 mmHg 30%
    20:00 +31°C° 0 mm 2 mps 749 mmHg 30%
    21:00 +30°C° 0 mm 2 mps 750 mmHg 31%
    22:00 +29°C° 0 mm 2 mps 750 mmHg 31%
    23:00 +28°C° 0 mm 2 mps 750 mmHg 32%

    Tomorrow, 4 June, Thursday

    Time Temperature Precipitation Wind Pressure Humidity
    00:00 +27°C° 0 mm 2 mps 749 mmHg 32%
    01:00 +26°C° 0 mm 2 mps 749 mmHg 33%
    02:00 +26°C° 0 mm 2 mps 749 mmHg 34%
    03:00 +25°C° 0 mm 2 mps 748 mmHg 34%
    04:00 +25°C° 0 mm 2 mps 748 mmHg 34%
    05:00 +26°C° 0 mm 1 mps 748 mmHg 32%
    06:00 +28°C° 0 mm 1 mps 748 mmHg 30%
    07:00 +29°C° 0 mm 1 mps 748 mmHg 28%
    08:00 +32°C° 0 mm 1 mps 748 mmHg 25%
    09:00 +34°C° 0 mm 1 mps 747 mmHg 23%
    10:00 +36°C° 0 mm 1 mps 747 mmHg 20%
    11:00 +39°C° 0 mm 2 mps 747 mmHg 17%
    12:00 +40°C° 0 mm 2 mps 746 mmHg 15%
    13:00 +42°C° 0 mm 2 mps 746 mmHg 13%
    14:00 +43°C° 0 mm 3 mps 745 mmHg 12%
    15:00 +44°C° 0 mm 3 mps 745 mmHg 11%
    16:00 +44°C° 0 mm 3 mps 745 mmHg 10%
    17:00 +42°C° 0 mm 4 mps 745 mmHg 12%
    18:00 +40°C° 0 mm 4 mps 745 mmHg 14%
    19:00 +36°C° 0 mm 4 mps 745 mmHg 17%
    20:00 +34°C° 0 mm 4 mps 745 mmHg 19%
    21:00 +31°C° 0 mm 3 mps 746 mmHg 22%
    22:00 +29°C° 0 mm 3 mps 746 mmHg 24%
    23:00 +28°C° 0 mm 3 mps 746 mmHg 28%

    Day after tomorrow, 5 June, Friday

    Time Temperature Precipitation Wind Pressure Humidity
    00:00 +26°C° 0 mm 2 mps 746 mmHg 31%
    01:00 +25°C° 0 mm 1 mps 745 mmHg 34%
    02:00 +25°C° 0 mm 1 mps 745 mmHg 36%
    03:00 +24°C° 0 mm 1 mps 745 mmHg 37%
    04:00 +23°C° 0 mm 1 mps 745 mmHg 39%
    05:00 +25°C° 0 mm 1 mps 745 mmHg 37%
    06:00 +26°C° 0 mm 1 mps 745 mmHg 35%
    07:00 +27°C° 0 mm 2 mps 745 mmHg 32%
    08:00 +29°C° 0 mm 2 mps 745 mmHg 29%
    09:00 +31°C° 0 mm 2 mps 745 mmHg 26%
    10:00 +32°C° 0 mm 2 mps 745 mmHg 23%
    11:00 +34°C° 0.1 mm 3 mps 745 mmHg 22%
    12:00 +35°C° 0.1 mm 3 mps 745 mmHg 20%
    13:00 +36°C° 0.1 mm 3 mps 744 mmHg 18%
    14:00 +36°C° 0 mm 3 mps 744 mmHg 17%
    15:00 +36°C° 0 mm 4 mps 744 mmHg 16%
    16:00 +37°C° 0 mm 5 mps 744 mmHg 15%
    17:00 +33°C° 0 mm 5 mps 745 mmHg 20%
    18:00 +29°C° 0 mm 6 mps 745 mmHg 25%
    19:00 +26°C° 0 mm 7 mps 746 mmHg 29%
    20:00 +23°C° 0 mm 6 mps 746 mmHg 32%
    21:00 +21°C° 0 mm 5 mps 747 mmHg 34%
    22:00 +20°C° 0 mm 5 mps 747 mmHg 37%
    23:00 +19°C° 0 mm 4 mps 747 mmHg 41%

    6 June, Saturday

    Time Temperature Precipitation Wind Pressure Humidity
    00:00 +18°C° 0 mm 4 mps 747 mmHg 44%
    01:00 +17°C° 0 mm 3 mps 747 mmHg 48%
    02:00 +16°C° 0 mm 3 mps 748 mmHg 50%
    03:00 +16°C° 0 mm 3 mps 748 mmHg 53%
    04:00 +16°C° 0 mm 3 mps 748 mmHg 55%
    05:00 +17°C° 0 mm 2 mps 749 mmHg 53%
    06:00 +18°C° 0 mm 2 mps 749 mmHg 52%
    07:00 +19°C° 0 mm 2 mps 749 mmHg 50%
    08:00 +20°C° 0 mm 2 mps 749 mmHg 48%
    09:00 +22°C° 0 mm 3 mps 749 mmHg 46%
    10:00 +24°C° 0 mm 3 mps 749 mmHg 44%
    11:00 +25°C° 0 mm 3 mps 749 mmHg 40%
    12:00 +27°C° 0 mm 3 mps 748 mmHg 36%
    13:00 +28°C° 0 mm 3 mps 748 mmHg 33%
    14:00 +28°C° 0 mm 4 mps 748 mmHg 30%
    15:00 +29°C° 0 mm 4 mps 747 mmHg 28%
    16:00 +29°C° 0 mm 5 mps 747 mmHg 25%
    17:00 +27°C° 0 mm 6 mps 747 mmHg 30%
    18:00 +26°C° 0 mm 7 mps 748 mmHg 35%
    19:00 +23°C° 0 mm 8 mps 748 mmHg 40%
    20:00 +21°C° 0 mm 8 mps 749 mmHg 42%
    21:00 +18°C° 0 mm 8 mps 749 mmHg 43%
    22:00 +16°C° 0 mm 8 mps 750 mmHg 44%
    23:00 +15°C° 0 mm 7 mps 750 mmHg 49%

    7 June, Sunday

    Time Temperature Precipitation Wind Pressure Humidity
    00:00 +14°C° 0 mm 7 mps 750 mmHg 55%
    01:00 +13°C° 0 mm 6 mps 750 mmHg 60%
    02:00 +11°C° 0 mm 6 mps 750 mmHg 64%
    03:00 +12°C° 0 mm 5 mps 750 mmHg 67%
    04:00 +10°C° 0 mm 5 mps 750 mmHg 70%
    05:00 +12°C° 0 mm 5 mps 751 mmHg 64%
    06:00 +13°C° 0 mm 5 mps 751 mmHg 58%
    07:00 +14°C° 0 mm 5 mps 751 mmHg 53%
    08:00 +16°C° 0 mm 5 mps 751 mmHg 46%
    09:00 +17°C° 0 mm 5 mps 751 mmHg 39%
    10:00 +20°C° 0 mm 5 mps 751 mmHg 32%
    11:00 +21°C° 0 mm 5 mps 751 mmHg 29%
    12:00 +22°C° 0 mm 5 mps 750 mmHg 25%
    13:00 +23°C° 0 mm 6 mps 750 mmHg 21%
    14:00 +23°C° 0 mm 6 mps 750 mmHg 20%
    15:00 +24°C° 0 mm 6 mps 750 mmHg 20%
    16:00 +24°C° 0 mm 6 mps 750 mmHg 19%
    17:00 +23°C° 0 mm 6 mps 750 mmHg 21%
    18:00 +21°C° 0 mm 6 mps 751 mmHg 24%
    19:00 +20°C° 0 mm 5 mps 751 mmHg 26%
    20:00 +19°C° 0 mm 5 mps 752 mmHg 30%
    21:00 +17°C° 0 mm 4 mps 752 mmHg 34%
    22:00 +15°C° 0 mm 4 mps 753 mmHg 38%
    23:00 +14°C° 0 mm 4 mps 753 mmHg 42%

    8 June, Monday

    Time Temperature Precipitation Wind Pressure Humidity
    00:00 +13°C° 0 mm 3 mps 753 mmHg 46%
    01:00 +12°C° 0 mm 3 mps 753 mmHg 50%
    02:00 +13°C° 0 mm 2 mps 753 mmHg 52%
    03:00 +12°C° 0 mm 2 mps 754 mmHg 53%
    04:00 +12°C° 0 mm 2 mps 754 mmHg 55%
    05:00 +13°C° 0 mm 2 mps 754 mmHg 50%
    06:00 +15°C° 0 mm 2 mps 754 mmHg 46%
    07:00 +18°C° 0 mm 1 mps 754 mmHg 41%
    08:00 +19°C° 0 mm 2 mps 754 mmHg 37%
    09:00 +21°C° 0 mm 2 mps 754 mmHg 33%
    10:00 +24°C° 0 mm 2 mps 754 mmHg 29%
    11:00 +25°C° 0 mm 2 mps 753 mmHg 26%
    12:00 +27°C° 0 mm 2 mps 753 mmHg 22%
    13:00 +28°C° 0 mm 3 mps 753 mmHg 19%
    14:00 +29°C° 0 mm 3 mps 752 mmHg 18%
    15:00 +29°C° 0 mm 3 mps 752 mmHg 17%
    16:00 +30°C° 0 mm 4 mps 752 mmHg 17%
    17:00 +28°C° 0 mm 4 mps 752 mmHg 19%
    18:00 +27°C° 0 mm 4 mps 752 mmHg 22%
    19:00 +25°C° 0 mm 4 mps 752 mmHg 24%
    20:00 +22°C° 0 mm 4 mps 753 mmHg 28%
    21:00 +21°C° 0 mm 4 mps 753 mmHg 31%
    22:00 +19°C° 0 mm 4 mps 754 mmHg 35%
    23:00 +18°C° 0 mm 4 mps 753 mmHg 37%
    Show more